Wind_Speed
2 2 8 12 12 15 15 17 24 28 25 23 23 23 28 26 29 26 27 25 25 25 26 28 18 15 18 20 26 32 32 32 32 30 29 25 22 20 23 23 24 29 32 33
0 7 7 6 11 12 14 17 24 24 16 13 25 29 26 27 28 29 27 25 25 27 26 18 6 4 6 5 6 27 33 34 35 34 30 23 27 23 23 24 24 28 29 33
5 4 1 7 12 10 14 14 18 19 24 19 22 24 21 21 23 24 20 16 16 10 12 2 7 9 9 9 8 3 24 32 34 30 27 20 21 15 21 26 29 31 30 32
8 4 4 6 13 7 6 9 13 16 12 11 9 13 22 17 16 14 12 11 10 9 9 9 9 12 13 12 10 7 5 23 27 31 30 29 26 20 25 24 26 27 30 31
4 5 5 12 7 9 10 6 13 16 15 14 13 6 5 16 17 13 13 12 11 11 11 11 11 13 15 14 13 12 9 12 16 23 25 26 22 21 18 20 23 29 28 34
9 5 5 5 5 12 8 7 14 8 4 5 5 3 3 10 13 15 14 12 13 13 12 11 16 17 19 19 19 17 15 16 11 9 13 19 24 20 21 24 25 28 30 35
10 3 3 5 5 2 3 5 5 3 1 6 7 1 4 12 14 14 15 16 13 14 13 14 15 16 22 24 23 19 18 18 15 10 6 5 10 16 26 25 25 25 27 30
4 6 2 4 4 6 8 4 3 5 6 10 6 5 4 8 15 16 13 14 16 15 14 15 15 18 22 24 25 23 22 21 19 15 10 4 3 7 9 17 24 25 26 29
3 6 5 14 8 3 2 3 2 5 7 4 2 3 1 16 17 19 18 17 19 16 14 17 16 20 21 23 26 25 24 23 22 19 15 11 6 7 10 15 12 25 26 25
1 8 8 5 5 7 6 1 4 3 4 5 3 4 7 14 16 17 19 19 19 17 17 15 14 20 22 23 24 27 27 24 22 22 19 15 12 10 10 13 17 13 25 25
5 5 7 11 3 7 6 5 5 3 4 4 3 4 6 11 12 14 15 16 17 19 18 15 14 20 22 25 28 28 28 28 27 25 23 19 17 15 12 9 4 10 21 25
0 4 6 14 17 6 6 11 7 4 2 1 3 3 5 9 10 13 14 14 15 15 16 14 14 20 22 27 29 30 30 29 28 26 24 23 23 20 19 18 12 7 6 19
0 2 7 6 2 9 5 8 11 7 3 3 2 4 7 12 12 13 14 13 14 14 18 15 15 15 25 24 27 28 29 28 26 25 27 29 30 29 27 25 21 16 10 3
4 3 1 1 4 6 11 17 11 4 2 5 7 6 10 12 13 14 14 15 14 13 14 14 14 20 27 26 30 28 30 30 25 27 30 30 29 27 26 25 26 23 19 14
1 2 5 6 9 12 15 17 17 11 4 4 6 6 9 11 11 11 11 12 16 19 20 18 19 17 24 27 27 26 33 26 27 31 30 30 29 28 30 31 29 25 26 25
1 1 2 3 6 0 8 16 13 10 13 12 11 8 7 8 9 11 13 15 16 16 16 18 18 24 27 28 27 29 29 29 25 29 30 28 30 32 31 32 30 31 30 29
1 2 2 2 3 4 2 8 9 11 14 5 6 5 6 9 11 12 12 14 14 15 16 17 17 22 24 29 28 27 26 29 31 29 28 30 30 30 30 30 32 33 31 32
2 4 2 3 3 2 4 3 10 15 11 8 8 7 8 12 13 12 13 13 13 13 13 14 18 21 24 24 29 27 27 27 28 28 28 28 28 26 26 28 29 30 30 29
9 2 3 3 2 4 4 3 2 4 6 9 4 4 9 8 5 12 12 12 12 12 15 17 19 20 22 24 22 24 28 27 27 28 29 28 26 25 25 26 26 26 27 30
6 3 2 2 3 4 3 5 4 4 3 8 7 4 7 6 3 4 10 11 12 13 14 15 15 18 21 23 23 24 26 29 29 27 26 27 28 30 29 28 26 25 24 24
1 1 2 3 1 3 7 8 3 3 3 4 6 8 8 6 5 5 7 11 12 12 16 15 17 19 20 21 21 25 26 26 26 25 23 27 27 26 27 26 28 26 24 24
1 1 1 1 0 2 12 1 1 6 6 6 5 7 11 10 9 8 8 9 13 15 16 17 17 20 22 24 23 23 26 22 21 24 24 24 23 24 25 24 24 24 23 22
1 2 1 3 3 4 5 9 7 4 8 6 7 7 9 8 7 6 6 8 11 13 12 13 16 17 20 20 19 18 19 18 18 18 21 21 20 22 22 25 26 24 23 22
2 1 2 4 4 7 6 9 9 9 8 8 9 9 8 9 7 6 6 8 10 11 13 13 14 17 18 19 19 18 17 17 17 18 18 18 19 19 20 20 20 22 23 21
2 2 3 3 6 7 7 8 8 9 10 11 11 10 8 8 8 7 7 9 10 11 12 13 15 15 17 17 17 17 17 17 16 16 18 18 17 18 17 17 18 16 19 21
2 1 1 1 6 4 4 6 6 8 8 7 8 10 11 9 8 8 9 9 10 13 13 14 15 15 15 16 18 19 18 17 17 16 17 17 15 15 15 15 13 13 15 17
Wind_Direction
16 268 257 270 248 269 281 280 280 281 289 299 282 283 280 286 287 280 274 272 271 266 271 274 268 290 296 263 235 218 206 198 188 189 197 202 203 204 208 210 212 212 210 209
55 254 265 269 265 262 265 271 278 283 283 295 293 290 290 282 277 274 274 269 261 262 267 261 248 316 344 323 268 215 206 197 189 192 196 195 199 210 211 211 212 213 211 213
234 265 38 251 271 257 260 255 277 276 300 298 290 289 298 299 286 290 285 299 300 316 277 6 354 12 9 7 355 263 201 197 189 191 186 192 191 201 202 213 215 215 212 214
256 256 251 269 281 240 276 233 255 279 306 306 343 300 333 341 355 12 4 5 14 15 27 24 26 10 18 11 10 18 173 194 194 183 184 186 188 190 207 211 211 209 214 212
264 253 252 296 263 178 242 214 278 279 277 300 304 240 312 0 3 351 352 9 27 27 29 21 21 18 22 25 27 31 68 106 148 169 188 188 196 204 207 205 205 214 211 217
257 261 268 230 254 221 265 296 285 284 259 259 288 252 11 6 352 351 352 358 19 24 25 22 21 23 22 25 35 34 48 58 86 129 176 193 202 199 203 202 199 204 212 213
321 250 226 228 285 191 204 333 318 321 247 284 351 239 31 6 9 359 1 357 10 19 19 22 23 19 20 22 28 34 41 44 46 66 92 152 184 203 210 210 209 208 210 209
347 324 213 172 256 286 290 275 274 301 315 308 335 1 17 12 18 13 13 13 8 8 19 22 23 23 22 22 24 28 34 37 32 32 31 14 265 247 220 223 216 215 217 216
330 263 268 293 268 201 79 224 245 256 245 262 128 68 222 16 12 14 8 18 10 1 8 20 20 24 24 27 26 27 30 33 27 23 18 13 353 307 280 250 232 221 223 219
219 287 282 308 296 218 202 10 269 216 287 290 107 59 356 4 7 10 11 7 12 359 6 9 15 19 24 29 29 30 32 32 26 22 18 13 4 0 328 277 254 253 235 233
225 206 292 316 248 291 271 257 215 267 249 290 310 67 9 18 17 13 10 10 9 3 7 2 9 15 24 31 31 31 30 30 26 20 17 18 14 17 13 14 351 268 249 243
188 295 288 281 303 337 254 254 234 238 231 240 86 74 13 34 34 21 14 13 7 13 3 1 7 15 25 29 30 28 27 25 22 21 23 22 21 23 23 19 11 350 306 242
255 269 295 330 136 20 328 309 269 257 234 240 141 93 38 31 29 29 21 14 14 11 10 3 9 9 31 26 30 28 24 23 23 23 26 24 22 21 20 24 19 19 13 346
225 261 264 1 350 339 339 347 357 190 80 89 64 86 30 27 27 28 19 13 17 20 22 7 10 23 23 18 26 22 23 21 23 32 30 27 22 22 21 28 28 31 25 23
152 250 207 199 113 58 12 7 34 58 86 81 112 84 41 30 30 31 28 25 22 17 17 11 19 19 19 21 18 20 26 18 25 30 29 24 24 25 27 31 31 35 38 39
173 252 256 276 199 52 22 9 23 48 81 96 105 85 55 46 37 45 33 27 29 25 21 21 18 21 24 20 16 20 16 17 26 30 27 25 24 29 27 30 29 37 40 40
276 267 251 253 116 94 15 6 19 57 42 26 62 67 94 63 52 44 36 35 29 23 18 15 15 15 17 23 23 21 17 23 27 29 28 23 24 27 27 31 33 34 33 41
273 298 244 266 151 118 131 61 90 75 42 57 100 120 117 96 72 51 37 33 29 25 21 17 16 12 11 15 24 24 28 29 28 28 27 25 24 27 29 32 33 36 37 38
217 289 291 279 69 105 117 26 347 7 62 27 27 150 166 162 114 52 32 34 32 27 23 25 25 21 15 15 18 25 30 31 31 25 23 24 26 25 26 28 29 33 39 41
161 227 234 295 225 200 78 328 294 293 67 22 29 42 46 206 49 20 23 26 28 33 35 33 31 32 27 18 23 24 28 27 25 22 22 24 28 29 27 27 28 31 38 41
232 321 338 349 106 109 354 314 254 237 92 77 60 53 64 83 75 90 40 32 29 32 30 32 35 36 28 23 25 30 26 26 21 25 29 31 30 28 26 28 33 36 32 36
69 321 24 292 346 164 350 118 81 111 106 116 93 90 94 104 98 75 51 35 29 28 27 30 35 34 29 26 24 25 23 17 21 24 26 30 30 31 32 29 27 29 29 32
79 29 97 17 87 63 10 66 53 110 117 113 110 112 109 100 84 74 59 47 39 36 34 35 40 39 35 31 28 25 16 18 25 26 27 30 31 34 34 33 30 30 30 31
105 356 100 172 105 93 70 75 65 73 75 97 115 119 119 117 107 81 64 50 45 38 37 36 41 39 33 27 25 24 17 21 29 31 28 31 35 36 37 36 35 36 31 31
6 336 114 88 117 110 75 91 93 86 86 88 82 87 95 108 97 97 81 67 55 47 42 41 41 36 30 24 21 19 18 22 28 30 27 25 27 30 33 38 38 39 42 42
12 83 235 111 140 99 119 126 108 100 92 92 100 86 73 84 88 88 77 61 51 46 42 41 38 34 26 23 21 20 19 23 27 29 26 24 24 25 25 23 23 34 41 40
Height
801 799 793 789 793 792 794 795 785 767 765 766 758 754 740 735 722 725 718 716 713 708 703 703 703 701 692 691 691 695 700 704 711 720 728 733 738 742 744 748 753 755 757 759
803 795 785 792 792 795 795 793 779 763 759 764 744 734 731 724 717 709 708 704 701 698 696 696 699 696 692 688 686 688 691 698 701 710 719 727 731 736 740 743 747 751 753 756
798 786 791 794 790 792 787 786 775 772 755 757 746 722 715 709 705 699 698 702 698 700 695 701 703 698 695 690 687 686 686 691 694 706 716 724 728 734 737 738 741 744 748 751
796 789 788 789 786 785 788 771 772 769 769 757 752 740 712 710 707 719 718 721 718 714 709 709 705 704 697 693 690 687 685 688 694 699 708 714 718 723 727 732 736 739 744 746
781 784 785 784 776 778 768 768 765 761 761 762 736 756 718 720 733 736 736 725 721 718 714 714 711 707 700 696 692 690 688 686 688 697 704 709 714 720 725 728 732 736 738 741
785 780 782 779 774 771 765 766 755 754 762 764 738 745 720 749 754 747 743 734 726 722 720 718 714 709 703 700 693 693 691 691 693 695 701 706 709 715 720 723 724 728 731 734
781 774 776 776 770 766 769 761 752 749 746 739 743 754 757 760 761 759 753 746 736 731 727 721 717 712 708 703 699 699 697 697 698 699 701 705 708 711 714 718 720 723 725 727
798 773 770 771 767 763 761 761 762 760 738 735 742 744 762 767 766 765 760 753 747 740 734 728 724 719 715 710 707 704 702 701 701 703 703 706 708 709 709 714 716 717 720 721
805 789 766 764 761 759 760 761 754 762 748 746 741 758 762 766 766 764 763 757 753 750 741 736 732 728 724 719 715 712 707 705 707 707 707 708 709 709 708 710 712 712 716 717
799 794 765 759 754 754 754 756 758 756 743 732 734 754 770 772 770 771 768 765 759 756 749 743 740 737 733 728 724 718 714 714 713 713 713 712 713 709 708 708 708 710 711 714
795 806 768 765 752 750 752 753 761 753 742 732 728 762 782 783 783 781 779 776 770 765 758 754 749 746 742 734 729 726 723 722 721 721 718 716 713 709 708 707 705 707 708 708
793 792 781 756 745 749 747 745 749 749 736 735 752 778 789 788 789 789 787 784 780 775 770 762 759 756 748 741 737 733 730 728 726 725 723 721 717 711 709 707 705 705 704 705
794 787 770 746 751 752 754 747 746 745 745 734 742 773 792 794 792 794 794 791 787 782 776 771 767 766 751 751 746 743 741 738 736 732 727 723 718 714 713 709 707 703 703 703
787 785 786 783 786 784 778 764 746 739 744 765 772 788 795 798 799 800 799 796 792 789 786 780 773 763 760 758 750 752 747 746 746 738 731 729 727 724 721 715 711 707 705 703
790 786 786 784 785 783 787 780 765 759 755 760 787 793 803 806 806 809 808 804 798 791 787 784 776 773 771 766 764 761 750 759 751 741 739 738 734 730 724 718 717 715 712 708
789 785 783 777 777 777 789 788 777 774 778 786 789 799 810 813 814 813 812 809 806 805 803 799 797 791 781 778 772 764 764 761 758 751 747 746 740 734 731 727 725 721 719 717
794 789 778 764 773 775 785 798 795 790 788 782 782 804 814 816 815 818 818 817 815 811 809 805 802 797 791 785 781 777 773 764 759 758 756 752 748 745 741 738 733 728 727 723
790 788 777 761 771 772 794 803 801 800 804 803 805 810 814 818 821 823 823 821 820 818 815 813 809 802 798 793 788 785 779 774 771 768 764 760 757 755 752 748 744 739 735 733
789 786 776 763 767 784 794 803 801 798 808 813 809 808 813 816 813 825 828 827 825 823 820 815 811 809 805 800 798 794 787 783 779 775 771 767 765 763 759 755 751 748 743 739
784 783 781 769 763 767 800 806 804 800 798 814 814 813 812 809 805 825 832 831 829 827 824 820 819 815 811 807 803 797 792 788 784 782 780 775 770 767 765 761 757 754 751 750
779 781 781 779 774 792 807 804 801 790 808 818 818 818 814 819 827 835 835 834 833 830 826 823 820 817 815 811 807 802 798 795 794 791 787 782 780 776 773 770 764 762 760 757
785 787 786 783 780 785 808 800 793 812 818 820 821 823 824 829 834 837 838 838 835 832 830 827 824 820 817 813 811 809 806 805 802 797 795 791 787 785 782 779 775 771 768 764
787 792 792 800 803 813 813 812 815 814 818 822 823 826 828 832 837 840 842 843 840 838 837 834 830 827 824 823 823 821 818 814 809 807 804 799 796 792 788 784 781 777 774 771
794 795 798 802 811 813 817 819 820 821 823 823 828 831 833 836 839 842 843 843 842 842 839 837 834 832 830 828 827 824 822 818 814 811 808 805 802 798 794 792 790 787 783 780
798 797 799 806 812 816 819 821 823 826 827 830 833 834 836 838 842 844 846 846 845 843 841 839 836 835 833 832 831 828 827 822 817 815 811 808 804 802 800 799 797 795 793 790
800 799 797 798 805 809 818 823 825 827 830 833 834 837 839 840 842 843 844 845 844 842 841 840 839 838 838 836 833 830 828 824 821 817 814 812 809 807 805 803 802 799 796 792